Tracking 21472 objects as of 22-Sep-2020
HD Live streaming from Space Station
objects crossing your sky now

ZHUHAI-1 03C

Track ZHUHAI-1 03C now!
10-day predictions


NORAD ID: 44537
Int'l Code: 2019-060D
Perigee: 509.9 km
Apogee: 526.7 km
Inclination: 97.4 °
Period: 94.8 minutes
Semi major axis: 6889 km
RCS: Unknown
Launch date: September 19, 2019
Source: People's Republic of China (PRC)
Launch site: Jiuquan Satellite Launch Center, China (JSC)
aabbcc
Your satellite tracking list
Your tracking list is empty




NASA's NSSDC Master Catalog

Two Line Element Set (TLE):
1 44537U 19060D   20265.86900726  .00000423  00000-0  23912-4 0  9992
2 44537  97.4208  13.7717 0012159 116.8182 357.6939 15.18231020 55922
Source of the keplerian elements: AFSPC